User: anonymous   Login
Location: Mactaquac Provincial Park
(45.9573°N, 66.8897°W)
Time: 02:32:44
(UTC-03:00)
Language:

Cosmos 1766 - Orbit

View from above orbital plane
View from above orbital plane
View from above satellite
View from above satellite

Ground track
Ground track

The orbit data is extracted from the following two-line orbital elements,

1 16881U 86055A   17083.68419227 +.00000806 +00000-0 +47617-4 0  9999
2 16881 082.4992 106.3439 0017001 037.7106 322.5312 15.09976774647526
Epoch (UTC): 24 March 2017 16:25:14
Eccentricity: 0.0017001
inclination: 82.4992°
perigee height: 524 km
apogee height: 548 km
right ascension of ascending node: 106.3439°
argument of perigee: 37.7106°
revolutions per day: 15.09976774
mean anomaly at epoch: 322.5312°
orbit number at epoch: 64752

The dashed part of the orbit path shows where the satellite is in the earth's shadow,  

DLR